Regional Weather Roundup
Issued by NWS Sioux Falls, SD

Home | Current Version | Previous Version | Graphics & Text | Print | Product List | Glossary Off
Versions: 1 2 3 4 5 6 7 8 9 10 11 12 13 14 15 16 17 18 19 20 21 22 23 24 25 26 27 28 29 30 31 32 33 34 35 36 37 38 39 40 41 42 43 44 45 46 47 48 49 50

944
ASUS43 KFSD 061202
RWRFSD

WEATHER ROUNDUP FOR SE SOUTH DAKOTA/SW MINNESOTA/NW IOWA
NATIONAL WEATHER SERVICE SIOUX FALLS SD
600 AM CST TUE DEC 06 2016

NOTE: "FAIR" INDICATES FEW OR NO CLOUDS BELOW 12,000 FEET WITH NO
SIGNIFICANT WEATHER AND OR OBSTRUCTIONS TO VISIBILITY.


SDZ038>040-050-052>070-061300-
SOUTHEAST SOUTH DAKOTA

CITY           SKY/WX    TMP DP  RH WIND       PRES   REMARKS
CHAMBERLAIN    CLEAR     16   8  70 W23G36    29.92R WCI  -3
6HR MIN TEMP:  16; 6HR MAX TEMP:  18;

HURON          CLOUDY    14   7  73 W28G36    29.84F WCI  -6
6HR MIN TEMP:  14; 6HR MAX TEMP:  16;

MADISON        LGT RAIN  14   9  79 W25G37    29.78F WCI  -5
MITCHELL       CLOUDY    18  10  71 W16G26    29.90R WCI   3
6HR MIN TEMP:  17; 6HR MAX TEMP:  19; 6HR PCP: TRACE;

SIOUX FALLS    FLURRIES  18  11  74 W18G28    29.84F WCI   2
6HR MIN TEMP:  16; 6HR MAX TEMP:  23; 6HR PCP: TRACE;

WINNER         FAIR      15   6  67 W18G30    29.94S WCI  -2
YANKTON        CLEAR     18   9  68 W15G21    29.91S WCI   3
$$

MNZ071-072-080-081-089-090-097-098-061300-
SOUTHWEST MINNESOTA

CITY           SKY/WX    TMP DP  RH WIND       PRES   REMARKS
FAIRMONT       MOCLDY    20  13  74 W18G25    29.80S WCI   5
JACKSON        PTCLDY    18  10  73 W16G22    29.80S WCI   3
LUVERNE        CLEAR     18   9  68 W24G31    29.83F WCI   0
MARSHALL       MOCLDY    16   9  74 W23G33    29.76S WCI  -2
6HR MIN TEMP:  16; 6HR MAX TEMP:  26; 6HR PCP: TRACE;

MONTEVIDEO     FLURRIES  19  10  68 W17G25    29.72F WCI   4
PIPESTONE      CLOUDY    16  10  79 W28       29.77S WCI  -4
REDWOOD FALLS  CLOUDY    19   9  65 W17G30    29.77S WCI   4
TRACY          MOCLDY    18  11  77 W15G24    29.76F WCI   3
WINDOM         PTCLDY    16  10  79 W21G30    29.78S WCI  -2
WORTHINGTON    FLURRIES  15  10  80 W30G37    29.78F WCI  -5
$$

IAZ001>003-012>014-020>022-031-032-NEZ013-014-SDZ071-061300-
NORTHWEST IOWA

CITY           SKY/WX    TMP DP  RH WIND       PRES   REMARKS
CHEROKEE       CLEAR     19  12  77 W10G25    29.90R WCI   7
DENISON        PTCLDY    21  12  68 W12G18    29.90S WCI   9
ESTHERVILLE    CLEAR     18  13  80 W20       29.81F WCI   2
LE MARS        CLEAR     18  10  73 W12G20    29.92S WCI   5
ORANGE CITY    CLEAR     18  12  79 W18G28    29.86S WCI   2
SHELDON        CLOUDY    18  12  79 W21G29    29.84S WCI   1
SIOUX CITY     CLEAR     20  10  65 NW12      29.94R WCI   8
6HR MIN TEMP:  20; 6HR MAX TEMP:  31;

SPENCER        CLEAR     18  11  74 W29G35    29.85S WCI  -1
6HR MIN TEMP:  18; 6HR MAX TEMP:  30;

STORM LAKE     PTCLDY    19  14  79 W25G31    29.86R WCI   2
$$

ABBREVIATIONS USED IN REMARKS
   TC - TEMPERATURE IN CELSIUS
  WCI - WIND CHILL INDEX
   HX - HEAT INDEX
  VSB - VISIBILITY





USA.gov is the U.S. government's official web portal to all federal, state and local government web resources and services.